Theta_e
320 321 321 320 320 321 323 325 324 324 327 328 327 328 329 329 328 327 329 326 322 327 330 327 327 326 326 327 324 324 325 322 320 319 320 321 323 323 324 325 326 327 327 326 327 327 327 327 326 327 327 327 327 327 327 327 326 326 325 325 325 324 325 324 323 322 319 318 318 318 318 318 316 316 316 316 316 317 318 319 320 321 323 322 322 320
321 321 320 318 318 318 320 323 324 325 325 325 326 328 328 328 328 326 328 329 322 324 329 326 327 326 325 326 322 321 324 322 320 319 320 321 322 323 323 324 326 326 327 326 327 327 327 327 327 327 327 327 327 327 327 327 327 326 326 325 325 325 324 324 324 324 322 321 319 319 319 319 319 318 318 317 317 316 316 317 318 319 320 321 322 323
323 322 321 318 317 317 318 321 323 324 324 324 325 326 327 327 327 325 325 327 324 325 329 328 327 326 324 326 322 319 322 322 322 321 322 323 323 323 323 324 325 326 327 327 326 327 327 327 327 327 327 328 327 327 326 326 326 326 326 326 326 325 325 325 324 325 325 324 322 322 321 320 320 320 319 319 319 318 318 318 317 317 317 318 319 321
322 322 321 319 318 317 317 320 322 323 323 324 324 325 326 326 327 327 325 325 324 325 330 328 326 325 324 326 323 320 321 322 323 323 322 323 323 323 324 324 325 325 326 327 326 327 327 327 327 327 327 327 327 327 327 326 326 326 326 326 326 326 326 325 325 325 325 325 324 324 323 322 321 321 320 320 320 320 320 319 319 319 318 317 316 317
320 320 320 320 319 318 317 320 322 323 322 322 323 323 324 324 326 327 325 324 324 324 325 325 325 325 324 325 324 321 320 320 321 321 321 322 323 323 324 324 324 325 325 326 326 326 326 327 327 326 327 327 327 327 327 327 326 326 326 326 326 326 326 326 326 326 325 325 324 324 325 324 324 323 322 321 321 321 320 320 321 321 320 319 318 317
319 318 320 321 320 319 318 319 320 321 321 321 321 322 322 323 325 325 324 324 326 327 324 324 328 328 324 325 325 323 322 321 320 320 320 321 322 322 322 323 324 324 325 325 326 326 326 326 326 326 326 327 326 326 327 327 326 326 326 326 326 325 326 326 326 326 326 325 324 324 324 325 325 325 324 324 323 322 321 321 321 321 321 321 321 320
317 318 320 320 320 320 319 319 319 320 321 321 321 322 321 322 324 325 324 324 326 327 324 324 328 329 325 325 325 324 324 323 321 321 321 320 321 321 321 322 322 323 324 325 325 325 326 326 326 326 326 326 325 325 326 327 326 327 326 326 326 326 326 326 326 326 326 326 325 325 324 324 324 325 325 326 326 325 324 323 322 321 321 321 321 321
317 317 320 320 319 320 320 320 319 319 321 320 319 322 323 322 323 324 324 325 325 325 324 323 326 328 327 324 324 326 326 324 322 322 321 320 320 321 321 321 321 322 323 323 324 324 324 324 324 324 324 325 325 324 326 326 326 326 326 326 326 326 326 326 326 326 326 326 326 325 325 325 324 325 326 326 325 325 325 325 324 323 322 322 322 322
317 316 317 319 319 320 320 320 319 319 320 319 321 324 324 322 322 323 324 324 323 324 326 324 325 327 326 323 324 327 326 324 322 322 321 320 320 320 321 321 322 322 323 323 323 323 324 324 323 323 323 323 324 325 326 326 326 326 326 326 326 327 327 327 327 326 326 326 326 326 326 325 325 325 326 326 325 325 325 325 325 325 325 324 324 324
317 316 315 317 319 320 320 319 319 320 320 320 323 326 324 323 323 323 324 324 322 323 325 325 324 326 325 322 323 325 324 322 321 321 321 320 319 321 321 322 322 322 322 323 323 324 324 324 324 324 324 324 325 325 326 326 326 326 326 326 327 326 325 325 325 325 325 325 325 325 325 325 326 326 326 326 326 325 325 325 325 325 325 325 325 325
314 314 313 315 317 318 320 319 318 319 319 320 322 324 324 323 322 321 321 321 323 324 324 323 323 325 325 322 321 322 322 321 320 320 321 319 319 320 321 322 322 321 321 321 322 323 324 324 324 324 325 324 324 324 324 324 324 324 324 324 323 323 323 324 324 324 324 324 323 324 324 325 325 326 326 326 326 326 326 326 326 325 325 325 326 326
312 314 314 314 315 315 319 320 316 315 318 320 322 323 323 322 321 321 319 319 323 325 323 321 321 324 325 323 320 321 321 320 321 320 321 321 319 319 321 321 321 321 321 320 321 322 323 323 322 323 323 322 322 321 321 321 321 321 321 320 320 320 322 323 322 321 321 321 321 322 322 324 325 325 325 325 326 326 326 326 326 326 326 325 325 325
312 313 315 315 314 315 318 320 317 315 318 320 321 322 323 323 323 323 322 322 323 324 323 321 321 322 324 321 319 322 322 321 319 318 320 319 317 318 320 320 320 320 321 321 321 321 321 321 321 321 321 320 319 319 319 320 320 319 319 319 319 320 320 320 320 320 320 320 320 321 321 322 323 324 325 325 326 326 326 326 326 326 326 326 326 326
312 312 314 315 315 315 316 318 318 317 319 319 320 321 322 324 324 324 324 323 322 322 322 322 322 323 322 321 320 321 321 320 318 317 318 318 318 319 319 320 320 320 320 320 321 321 321 320 320 319 319 318 317 318 318 318 318 318 319 319 319 319 319 319 319 319 319 319 320 320 321 321 322 322 323 324 324 325 325 326 326 326 326 326 326 326
312 312 313 315 315 316 316 315 316 317 319 319 319 320 321 322 322 321 321 321 321 322 322 321 323 324 324 325 324 319 317 318 318 318 318 318 319 320 319 319 319 320 320 320 320 320 320 320 319 319 318 317 316 317 317 318 318 319 319 319 319 319 319 319 319 319 320 320 320 321 321 321 321 322 322 323 323 324 324 325 325 326 326 327 326 326
311 312 312 313 314 316 316 314 315 317 318 318 318 319 320 320 318 317 319 321 321 322 321 321 323 325 324 325 321 317 316 317 318 318 318 318 318 318 319 319 319 320 320 320 320 320 319 319 319 318 318 317 316 317 318 318 318 318 318 318 318 318 318 318 318 319 319 320 320 321 321 321 321 322 322 322 323 323 323 324 324 325 326 326 327 327
311 311 312 312 313 315 316 315 314 315 317 318 318 319 319 319 318 317 319 320 319 320 320 321 323 323 322 321 319 317 319 319 318 318 316 316 318 317 318 319 319 320 320 320 320 319 319 318 318 318 317 317 317 317 318 318 318 318 319 319 320 319 319 318 318 319 319 319 320 320 321 321 321 321 322 322 323 323 323 324 324 325 326 326 327 327
311 310 311 312 313 313 313 315 315 313 316 319 319 318 318 318 318 318 318 318 318 318 319 320 322 321 320 322 321 319 319 319 320 320 316 315 315 315 317 318 319 319 319 319 318 318 318 317 317 317 317 317 317 317 317 318 318 319 319 320 321 321 321 321 320 320 320 319 319 320 320 321 321 322 322 322 322 323 323 324 325 325 325 326 326 327
311 310 310 311 313 313 312 316 318 315 315 316 316 317 318 318 318 318 318 319 319 318 318 318 318 318 318 321 321 319 319 317 318 319 319 317 314 313 315 317 318 318 318 317 317 317 316 317 317 317 317 317 317 317 317 318 318 318 319 319 319 321 322 322 322 322 321 320 320 320 320 320 321 322 322 322 322 322 323 324 324 325 325 326 326 326
310 310 310 309 310 314 315 316 318 317 315 314 314 317 318 317 318 319 318 318 319 318 317 317 316 315 316 316 316 316 315 315 316 319 322 318 313 313 316 317 317 317 317 317 316 316 316 316 317 317 317 316 316 317 318 318 317 317 317 317 318 319 320 322 323 322 322 321 321 320 320 320 321 321 322 322 322 322 323 324 324 325 325 325 325 326
310 308 309 308 307 312 316 315 315 316 317 316 316 317 317 316 317 319 317 317 318 317 316 317 315 315 317 316 315 315 314 313 316 319 321 316 313 315 316 316 317 316 316 316 315 316 316 316 316 316 316 316 316 317 316 316 316 316 316 316 316 318 319 321 322 322 322 321 321 321 321 321 321 321 321 321 322 322 323 324 324 325 325 325 325 325
310 308 309 311 309 311 314 314 313 315 316 316 316 316 316 316 316 317 316 317 319 316 315 316 314 316 324 321 313 313 315 315 315 316 317 313 311 314 315 315 316 315 315 316 315 316 316 316 316 316 316 316 316 315 315 314 314 314 315 316 316 317 318 320 322 322 322 322 322 322 322 322 321 321 322 321 321 322 323 324 324 324 324 325 325 325
311 311 310 310 311 312 312 311 310 313 314 315 315 315 316 316 316 316 315 316 318 317 315 316 314 317 327 327 321 319 317 314 312 313 314 312 312 314 315 314 315 315 315 316 315 315 315 315 316 315 315 315 314 314 314 314 315 315 316 315 316 317 318 320 321 323 323 322 323 323 323 323 323 322 322 321 321 322 323 323 323 323 324 325 326 325
309 311 309 309 311 311 312 311 310 311 313 314 315 315 315 316 315 315 315 315 317 317 316 317 315 316 322 327 325 322 314 310 310 311 312 313 313 314 315 314 315 315 315 315 315 315 315 314 314 314 314 314 314 314 314 315 316 316 316 315 315 317 318 319 320 322 324 323 323 323 322 323 323 323 323 322 322 322 323 323 323 324 325 326 326 325
309 309 308 309 310 309 311 312 311 311 313 314 314 314 314 315 315 315 316 316 317 317 317 317 315 316 322 325 320 316 314 312 311 312 312 313 314 315 314 314 314 314 314 314 314 313 313 313 314 314 314 314 314 314 315 316 317 317 317 316 315 315 317 318 319 320 322 323 323 323 323 323 323 324 323 323 323 323 324 324 324 325 326 326 325 324
309 309 308 309 309 309 309 310 310 310 312 313 313 313 313 314 315 315 316 317 317 318 317 317 315 317 322 322 317 315 316 314 311 310 311 312 313 314 314 314 314 313 313 313 312 313 313 312 313 312 312 313 313 314 316 316 317 317 318 318 317 316 315 316 317 318 319 319 319 320 321 322 323 324 324 324 324 324 325 325 325 325 325 324 323 322
310 310 308 308 308 308 308 308 310 312 312 313 313 312 312 313 314 315 315 315 316 317 317 316 316 316 317 316 315 314 314 313 312 310 309 310 311 312 312 312 312 312 312 312 312 312 312 312 312 312 313 313 314 315 316 317 317 317 316 316 317 317 315 314 315 317 317 317 317 317 317 318 319 321 322 322 322 322 322 322 321 321 320 320 319 317
310 309 308 308 308 307 307 308 312 313 312 312 312 312 312 312 312 313 314 314 314 315 315 314 314 315 314 313 313 313 312 312 311 310 308 309 310 310 311 311 311 312 312 312 312 312 312 313 313 313 314 315 315 315 315 316 316 315 315 314 315 316 316 314 312 314 316 316 316 316 315 315 316 316 316 317 316 317 316 316 315 315 315 315 315 314
310 309 309 309 309 308 308 310 313 313 312 312 312 312 312 312 312 312 313 313 313 313 312 312 312 312 312 311 311 311 310 310 309 309 309 310 310 310 310 311 312 312 313 313 313 314 314 314 314 315 315 315 315 314 313 313 313 312 312 313 314 315 316 314 311 312 315 315 315 315 315 315 315 315 315 315 315 315 315 314 315 314 314 314 314 314
309 310 310 310 310 309 309 310 312 313 312 312 312 312 312 312 312 312 312 312 312 312 312 311 312 311 310 310 310 309 309 309 309 310 310 310 311 311 311 312 313 313 313 314 314 314 314 315 314 314 314 314 313 311 311 310 310 310 311 311 312 315 315 314 311 310 314 316 315 315 316 316 316 316 316 316 316 315 315 316 315 316 316 316 316 316
307 310 310 309 310 310 309 310 311 311 311 311 311 310 311 311 311 312 312 312 312 312 312 312 312 311 310 310 310 309 309 310 310 310 310 311 311 311 311 311 312 312 313 313 313 313 312 312 311 310 310 309 309 309 309 309 308 309 309 309 311 314 314 313 311 310 313 316 316 316 317 317 317 317 317 317 317 316 316 316 316 316 316 316 317 317
307 309 310 308 309 309 309 309 309 308 309 310 309 310 310 311 311 311 312 312 313 313 313 313 313 312 311 311 311 310 310 311 311 310 310 311 311 311 311 311 311 311 311 311 311 310 309 309 308 308 308 308 308 308 309 309 309 309 309 309 310 312 312 312 310 310 313 317 317 317 317 318 318 318 318 318 318 318 317 317 317 316 316 316 317 317
307 308 308 308 309 309 309 309 308 307 308 309 309 309 310 310 310 311 311 312 312 312 313 313 312 312 311 312 312 312 311 312 311 310 310 311 311 310 310 310 309 309 309 309 309 309 309 309 309 309 309 309 309 309 309 309 309 309 309 309 310 310 310 311 310 310 313 316 317 317 317 317 317 318 318 318 318 318 318 318 317 317 316 315 316 316
307 308 307 308 309 309 307 307 308 309 310 311 309 309 308 308 308 309 310 310 311 311 312 312 312 312 312 312 312 312 311 311 311 310 310 310 310 310 309 308 308 308 308 308 308 308 309 309 308 309 309 309 309 309 309 309 309 309 309 309 310 310 310 311 311 311 313 315 316 317 317 317 317 318 318 318 319 319 319 318 318 317 316 315 314 315
307 307 307 308 309 307 305 306 309 310 310 311 310 310 309 308 308 308 309 309 309 310 311 312 311 311 311 310 310 310 310 310 310 310 310 310 309 309 308 307 307 307 307 308 308 308 308 308 309 309 309 310 310 310 310 309 309 309 309 310 310 310 311 312 312 313 314 315 315 316 317 317 317 318 318 319 319 319 319 318 318 317 316 314 313 313
307 307 307 308 308 306 305 307 309 310 309 310 310 309 309 309 309 309 308 308 307 308 309 310 310 310 310 309 308 308 308 308 308 308 308 308 308 307 307 307 307 308 308 308 308 308 309 309 309 310 310 310 310 310 310 310 310 310 310 310 310 311 312 312 313 314 315 315 315 316 316 316 317 318 318 319 319 318 318 317 316 315 314 313 312 312
307 307 307 307 307 307 307 308 309 309 308 308 308 307 307 309 309 308 308 308 307 307 307 308 308 308 308 307 307 307 307 306 307 307 307 307 307 307 307 307 308 308 308 308 308 309 309 309 310 310 310 310 311 311 311 311 311 311 311 311 311 312 313 313 313 314 315 315 315 315 316 316 316 317 318 318 318 317 316 315 314 313 312 312 311 311
305 307 308 308 307 307 308 308 309 309 308 306 306 307 306 306 307 308 308 308 307 307 306 306 307 307 307 307 306 306 307 307 307 307 307 307 307 307 307 307 307 308 308 308 308 309 309 309 309 309 310 310 310 311 311 311 311 311 311 312 312 312 312 312 312 313 313 314 314 314 314 315 315 315 316 315 315 314 313 312 312 311 311 311 311 311
303 304 306 308 307 306 307 308 308 308 307 306 307 308 306 304 306 309 309 307 307 307 306 306 307 307 307 306 305 306 308 309 308 307 307 307 307 307 307 307 307 307 308 308 308 309 309 309 309 309 309 310 310 310 311 311 311 311 311 311 311 311 311 311 311 311 312 312 313 313 313 314 314 314 314 313 313 312 312 311 311 311 311 311 311 311
304 303 303 306 306 306 307 307 308 307 306 308 309 307 303 303 305 308 308 308 308 307 305 305 306 307 306 305 305 307 308 308 307 307 307 306 306 306 306 307 307 308 308 309 309 310 310 310 310 310 310 310 310 310 311 311 311 310 310 310 309 309 309 309 309 310 310 311 311 311 311 311 311 312 312 313 312 312 311 311 311 311 310 310 310 310
305 303 303 305 307 307 307 307 307 307 307 310 308 303 302 304 307 308 308 308 306 304 303 304 305 306 305 304 304 306 307 307 307 307 306 306 306 306 307 307 308 309 309 310 310 310 310 310 310 310 310 310 310 310 310 310 310 309 308 308 308 307 307 308 308 308 308 308 309 309 309 309 309 309 310 310 310 310 310 310 310 310 310 310 310 309
305 304 304 305 306 307 307 307 307 306 307 307 303 301 303 307 308 306 305 304 303 302 302 304 305 305 305 304 304 305 306 306 307 307 306 307 307 307 307 308 309 309 309 309 309 309 309 309 309 309 309 309 310 310 309 309 308 307 306 306 306 306 306 307 307 307 307 307 307 307 307 308 308 307 307 308 308 308 308 308 308 308 308 308 308 308
306 305 305 304 305 306 306 306 307 307 306 303 302 302 305 307 307 304 302 302 303 303 303 305 305 304 305 305 304 305 306 306 306 306 307 307 307 308 308 308 309 309 308 308 308 308 308 309 309 308 308 308 308 308 307 307 307 306 306 305 304 305 305 305 305 306 306 306 305 305 306 306 306 306 306 306 306 306 306 306 306 306 306 306 306 306
306 306 306 305 304 305 306 306 307 306 303 302 303 305 305 305 305 303 303 302 303 303 304 304 304 304 305 305 305 306 306 306 307 307 307 308 308 308 308 308 308 308 307 307 307 307 308 308 308 307 307 307 307 306 306 306 306 306 306 305 305 305 305 304 303 303 303 303 303 303 303 303 303 303 303 303 302 303 303 303 303 303 303 303 303 303
306 305 306 306 305 305 306 305 304 302 301 302 304 304 304 304 303 303 303 302 302 303 304 304 305 305 305 306 306 306 306 307 307 307 308 308 308 308 307 307 307 307 306 306 306 306 306 307 307 306 306 306 306 306 306 306 306 306 305 305 305 304 304 303 301 300 300 301 301 301 301 301 301 301 301 301 301 301 301 301 301 301 301 301 301 301
303 303 305 307 306 304 304 303 302 301 300 301 303 304 304 304 303 302 302 302 302 304 304 304 305 305 305 306 306 306 306 307 307 307 307 307 307 307 307 306 306 305 305 305 305 305 305 305 305 305 305 305 305 305 306 305 305 304 304 303 302 302 301 301 300 299 299 299 300 300 300 300 300 301 301 301 301 301 301 301 301 301 301 301 301 301
301 301 303 305 305 304 305 305 303 301 300 301 302 303 304 304 303 303 302 302 302 302 303 304 305 305 304 305 305 305 306 306 307 307 307 306 307 306 306 306 305 304 304 304 304 304 304 304 304 304 304 304 304 304 304 303 303 303 302 301 300 299 299 298 298 298 299 299 299 299 299 300 300 300 300 301 301 301 301 301 301 301 301 302 302 302
302 301 303 304 304 304 305 306 304 301 300 301 302 303 303 304 304 303 303 302 302 302 303 304 304 303 304 305 305 305 306 306 306 306 306 306 306 306 305 305 304 303 303 303 303 303 302 302 302 302 302 302 302 302 302 301 301 300 300 299 299 298 297 297 297 297 297 298 298 298 298 298 298 298 298 298 298 299 299 300 300 301 302 302 302 303
301 301 303 304 304 303 304 305 303 300 300 301 301 301 303 303 304 304 304 304 303 303 303 303 303 304 305 305 306 306 306 306 305 305 305 305 305 305 304 304 303 302 302 301 301 301 300 300 300 300 300 300 300 300 300 299 299 298 298 298 298 297 297 297 296 297 297 297 298 298 298 299 299 299 299 298 298 298 298 298 298 298 299 300 301 301
301 302 303 303 303 303 303 303 302 302 303 302 300 301 303 303 303 303 303 303 303 303 303 304 305 305 305 305 305 305 304 304 304 304 305 305 304 304 304 303 302 301 301 300 300 299 299 298 298 299 299 299 299 298 298 298 298 298 297 297 297 298 298 298 298 298 298 298 299 299 300 300 301 301 301 301 301 300 300 299 298 297 296 297 297 297
301 302 302 302 303 303 303 302 301 302 304 303 301 301 303 303 303 303 302 302 303 303 305 305 305 304 304 303 303 303 303 303 304 304 304 304 304 303 303 302 301 300 300 299 299 298 298 297 297 297 297 298 298 297 297 297 298 298 298 298 298 298 299 299 299 299 299 300 300 300 300 301 301 301 302 302 302 302 301 301 300 299 298 297 296 296
Wind_Speed
17 9 8 11 12 15 15 12 12 7 3 5 3 3 6 7 7 4 3 5 2 2 6 10 12 11 10 9 13 25 25 17 17 17 21 26 29 32 33 34 35 33 30 27 29 31 30 26 24 23 22 22 23 25 26 26 26 27 27 29 30 30 29 30 32 33 34 35 35 35 35 34 33 32 33 35 35 35 35 36 37 37 36 36 36 35
15 10 11 16 16 15 13 10 10 9 10 9 2 2 5 8 8 4 4 6 3 3 6 5 8 11 9 6 10 19 18 14 16 16 20 25 28 30 31 33 33 30 29 30 32 32 30 26 26 25 25 24 25 26 27 27 27 26 26 27 28 29 30 31 31 32 34 36 37 37 36 35 34 34 35 35 34 35 35 37 38 38 38 38 37 37
11 10 15 18 14 10 9 9 9 10 11 10 4 4 5 3 3 2 2 4 3 3 5 3 7 11 8 7 10 13 15 19 21 21 25 28 28 29 30 31 33 33 34 34 34 33 29 26 26 27 27 27 27 27 27 27 27 27 27 27 28 29 30 30 30 32 33 34 36 38 38 38 38 38 38 38 37 37 38 38 38 37 38 38 38 39
10 11 17 16 10 10 9 7 8 8 9 8 7 7 7 3 2 2 2 2 4 5 4 2 6 8 6 7 8 13 21 25 26 26 29 30 31 33 34 35 36 37 38 37 36 34 31 29 29 31 31 31 31 31 30 30 30 30 29 29 29 30 30 30 31 32 32 33 35 37 38 40 41 42 42 43 42 42 42 40 39 38 37 37 39 39
9 8 13 13 10 12 10 6 8 8 8 10 11 11 11 7 3 1 1 2 2 4 3 2 6 8 8 9 8 11 18 22 27 27 26 30 34 35 36 37 37 37 38 38 39 39 37 36 36 36 36 35 35 36 35 34 34 33 31 31 31 32 32 32 32 33 34 36 37 38 39 41 43 44 45 46 46 45 44 42 40 38 38 38 39 39
11 8 12 14 12 13 11 8 11 11 8 10 12 14 15 10 5 2 1 1 2 5 3 2 5 10 9 10 10 8 10 14 21 22 25 32 34 34 35 37 37 37 38 39 40 42 42 42 42 41 40 38 38 38 37 37 37 36 35 34 34 34 34 34 33 34 36 38 39 40 41 42 43 44 44 45 44 44 44 42 42 41 41 41 40 40
8 8 9 12 13 13 13 11 13 13 8 8 9 13 14 9 9 8 4 3 4 4 2 3 5 10 9 9 9 7 9 13 16 16 24 33 32 32 35 36 38 38 39 41 41 43 44 44 44 42 41 40 39 39 38 37 38 38 38 37 37 37 37 36 36 37 38 39 40 42 43 43 44 44 44 43 43 44 43 43 44 44 44 43 43 43
7 11 8 9 13 13 12 11 12 12 9 8 5 9 12 12 14 12 6 5 5 3 2 1 5 7 11 12 7 8 10 12 14 16 21 27 29 30 33 34 36 38 40 43 44 45 46 46 47 45 43 42 40 39 39 39 39 40 39 39 39 39 39 39 38 39 40 41 42 43 45 46 46 47 46 45 45 46 46 45 46 46 46 46 45 45
7 14 12 10 11 9 10 10 10 12 9 8 4 9 10 13 13 10 6 6 5 4 5 5 5 5 11 13 5 6 10 13 14 16 17 21 25 27 30 33 36 37 39 41 43 44 45 45 46 45 43 42 40 39 40 40 40 41 41 40 40 41 42 43 42 41 42 42 42 44 46 48 49 49 49 47 48 49 49 49 48 47 47 47 46 45
4 10 14 11 7 7 10 11 11 14 10 6 6 6 3 4 7 7 7 7 5 5 8 9 9 7 12 13 6 3 10 14 12 11 12 18 23 25 29 33 34 35 37 38 40 41 41 41 41 40 40 40 39 39 41 42 43 44 44 43 44 45 46 46 46 45 45 44 44 45 47 49 50 50 50 50 51 52 52 52 51 50 49 48 47 46
2 3 10 9 8 9 8 6 9 14 11 6 7 4 3 3 2 2 3 4 6 7 11 15 16 12 11 14 10 7 10 11 8 8 10 14 20 24 29 32 33 35 36 37 39 40 39 38 38 38 38 38 37 38 40 42 43 43 44 44 46 47 45 43 41 41 42 43 44 46 46 48 50 50 51 51 52 52 52 53 52 51 51 51 50 48
4 1 4 5 10 10 7 3 3 5 8 6 6 5 1 0 1 0 0 3 6 8 12 17 18 14 12 14 8 6 10 11 8 9 9 9 17 26 30 32 35 36 37 38 39 39 38 36 36 35 35 35 36 38 39 39 39 40 42 43 44 45 42 39 38 39 41 42 44 45 45 46 47 48 50 51 51 51 52 53 51 51 52 53 52 51
7 5 2 1 5 9 9 6 1 3 6 6 5 6 5 4 4 4 4 4 6 7 8 11 14 12 12 16 13 7 9 10 8 11 12 13 19 25 29 32 34 35 36 37 38 38 38 37 36 35 35 36 37 38 39 39 39 40 40 41 42 43 40 39 40 41 42 42 43 43 43 43 44 46 48 48 49 49 50 51 51 51 52 53 53 52
4 6 5 2 3 9 12 9 6 3 7 9 7 8 8 5 5 7 6 6 8 9 7 6 10 9 7 11 18 18 15 13 14 17 19 21 23 26 28 29 30 31 34 35 37 37 36 36 35 35 35 37 37 37 37 38 37 37 37 38 41 42 41 40 41 41 42 43 43 43 44 43 43 44 46 47 47 47 48 49 51 51 52 53 53 52
8 7 8 9 5 11 15 12 11 7 7 10 7 7 8 6 6 7 5 6 7 5 4 3 6 6 5 6 10 13 12 17 27 28 22 21 24 26 26 25 27 30 30 31 33 34 34 35 36 37 38 38 38 37 36 36 36 37 37 37 38 39 38 38 39 40 41 42 43 44 44 44 43 44 45 45 45 46 47 48 50 51 51 52 52 51
10 7 6 14 11 10 13 12 9 8 5 6 5 7 9 8 8 6 3 3 2 2 1 3 4 4 4 6 7 7 6 9 21 26 22 23 26 25 25 28 30 31 31 31 32 34 36 38 39 40 39 39 38 37 37 36 34 33 31 30 32 33 33 33 34 36 37 38 40 41 42 43 43 44 45 46 45 44 44 45 48 50 51 51 51 51
8 6 2 9 10 10 14 12 10 10 7 4 5 8 5 4 6 6 4 1 2 5 3 4 4 3 3 7 9 10 7 4 9 12 14 20 23 21 25 32 34 34 35 35 36 38 40 41 40 39 39 39 38 37 35 30 25 23 24 25 27 30 31 32 32 33 33 34 36 37 38 40 42 43 45 45 45 43 42 43 46 48 50 51 51 50
7 5 0 6 9 11 13 11 8 9 8 5 8 10 3 2 2 2 4 3 4 7 4 5 6 4 5 6 7 9 9 7 8 7 6 12 16 18 25 33 35 35 36 36 38 40 40 39 38 38 38 37 35 31 25 20 18 19 21 24 27 29 30 31 32 32 32 33 33 34 35 36 38 40 42 43 43 43 42 43 44 45 47 48 48 48
6 4 4 4 7 5 8 9 6 8 5 2 5 9 5 1 3 5 4 4 6 7 6 8 9 6 6 5 4 8 10 9 8 7 7 8 11 16 24 31 33 32 34 35 37 37 35 34 34 33 31 27 24 21 17 17 19 21 23 25 28 30 32 32 31 32 32 33 33 33 33 34 35 37 39 41 42 42 42 42 42 43 44 45 46 47
6 6 4 2 2 3 6 6 7 8 4 1 1 5 3 3 5 7 5 3 6 7 6 9 10 7 7 7 7 12 16 12 5 5 7 9 14 22 27 31 34 33 33 34 32 28 25 25 24 22 19 17 17 16 16 19 22 24 26 28 30 32 33 33 32 31 32 32 32 32 33 34 36 37 38 39 40 41 42 41 41 41 42 42 44 46
4 6 5 1 2 2 6 7 11 14 9 4 4 5 5 4 1 2 3 3 5 6 5 7 8 5 4 5 9 13 17 14 7 8 8 12 21 28 31 34 34 32 32 32 26 21 18 15 15 15 15 15 15 16 20 23 26 28 30 32 33 34 34 35 33 30 30 30 30 30 31 33 35 37 38 38 39 40 40 40 39 39 39 40 43 45
3 6 6 2 1 4 6 6 8 11 10 8 6 7 8 7 4 3 5 4 3 5 6 6 7 6 4 4 7 11 12 9 5 8 9 13 22 29 31 32 31 27 27 25 20 16 14 12 13 13 14 15 18 22 25 27 29 31 32 32 34 35 35 35 34 31 29 28 28 28 29 30 32 35 36 37 38 38 37 36 35 35 37 40 41 42
3 3 3 2 4 4 4 2 2 3 7 7 7 7 7 7 6 7 9 6 4 6 7 7 8 6 4 4 5 7 7 3 2 6 8 12 19 25 28 28 25 22 19 16 13 13 14 14 15 16 19 23 25 27 28 30 31 31 30 30 32 33 35 35 35 33 30 29 29 28 28 29 31 32 34 35 36 36 35 34 33 34 37 39 39 41
1 2 4 2 1 1 4 4 3 2 4 5 6 8 9 11 11 11 9 5 4 6 6 7 8 5 3 4 5 5 5 2 4 7 9 12 14 16 19 19 16 15 13 12 14 17 19 21 23 25 27 27 28 29 30 30 29 28 27 27 28 30 32 34 34 33 31 31 30 29 29 30 30 31 32 34 34 35 35 35 35 36 37 38 39 40
7 5 5 4 2 0 2 3 3 2 4 6 9 12 14 15 15 11 6 3 4 6 8 7 8 6 4 4 3 5 4 3 6 8 10 12 12 11 12 12 12 14 16 18 21 24 27 28 30 31 31 31 33 32 30 27 27 27 26 27 29 30 31 32 33 31 30 30 30 29 29 30 30 30 31 32 33 33 34 36 37 37 37 38 39 39
10 6 6 8 7 7 7 7 7 7 6 4 6 12 15 15 15 11 6 6 5 6 8 7 5 5 6 7 7 7 7 7 8 9 10 11 11 11 12 16 19 22 25 28 31 33 34 34 35 35 36 36 36 33 29 27 27 28 28 30 32 32 31 31 32 30 28 28 28 27 27 28 29 29 30 31 31 31 31 32 34 35 36 37 38 38
4 4 9 10 11 12 12 12 8 6 6 6 9 14 15 15 16 12 6 7 7 6 8 8 7 8 10 11 12 10 9 10 11 10 10 10 10 14 20 25 29 30 32 35 37 38 38 38 38 37 36 35 34 34 32 30 30 31 33 35 36 36 35 32 31 30 29 28 28 27 25 25 25 26 27 28 28 28 29 30 32 33 34 35 35 35
2 6 11 12 14 15 11 8 5 8 10 12 13 16 15 14 15 13 11 12 9 7 10 11 10 12 14 17 18 15 13 12 12 14 15 14 17 21 25 28 28 30 33 34 35 37 37 37 36 35 33 32 33 35 35 35 36 37 38 38 38 39 38 35 33 31 29 28 28 27 25 24 24 24 24 25 26 27 28 29 30 30 31 31 31 32
3 8 13 12 16 18 12 6 6 8 9 9 12 15 15 12 13 14 16 17 13 10 11 13 15 17 17 18 18 16 14 14 15 19 23 24 24 21 18 18 21 25 29 31 32 33 33 34 34 33 33 33 36 40 41 41 42 41 41 40 39 39 38 36 34 32 30 27 24 23 22 21 20 21 21 22 23 23 24 25 25 26 26 27 27 28
3 8 13 12 14 18 13 6 6 8 7 7 11 14 14 14 15 16 16 17 18 15 14 16 18 18 15 13 16 19 17 15 18 22 24 24 23 17 14 16 20 24 26 29 32 33 32 33 35 36 38 39 42 44 43 42 43 42 41 39 38 36 33 34 34 33 31 28 23 20 19 18 17 17 18 18 19 20 20 21 22 22 23 24 25 26
3 6 9 10 10 14 12 8 6 7 7 6 8 8 10 11 12 15 16 15 16 16 16 17 16 14 12 12 17 21 19 14 15 19 21 24 23 19 17 19 22 25 28 30 31 33 35 37 38 40 41 42 43 43 42 42 42 42 40 38 36 33 32 34 36 34 32 30 25 21 19 18 17 16 16 17 17 19 20 21 22 23 23 24 24 24
5 4 3 6 7 11 11 10 8 5 3 3 4 4 9 12 12 15 15 14 15 14 15 15 13 13 14 13 13 18 17 13 14 18 23 27 26 19 18 23 27 28 28 29 31 33 36 37 38 40 42 43 43 43 42 41 41 41 40 38 36 34 35 36 36 33 31 30 28 25 22 20 19 17 17 17 17 19 20 21 22 24 25 26 25 24
6 5 3 5 7 9 8 9 9 5 2 5 7 9 13 15 14 14 12 13 15 14 12 13 13 14 15 11 11 14 15 12 14 22 26 25 24 21 21 26 29 29 30 31 32 32 33 35 38 40 42 43 42 42 41 40 40 41 40 39 37 36 37 36 35 33 31 30 29 28 25 23 21 19 18 18 19 19 20 21 22 23 24 26 27 26
7 8 5 5 6 6 4 8 8 5 6 8 10 15 18 15 12 10 10 13 14 12 11 11 11 12 13 12 13 15 16 16 20 27 27 24 24 27 28 28 30 33 34 33 31 31 33 36 37 38 38 37 37 38 38 38 39 40 40 39 38 37 37 36 34 34 32 31 30 29 27 25 23 21 20 20 20 20 20 21 22 22 23 25 26 27
10 10 5 3 4 3 3 7 6 7 8 7 5 9 14 14 12 11 12 15 15 13 12 13 14 14 15 16 16 15 17 23 28 30 31 31 34 35 33 32 34 36 35 33 33 34 34 34 33 31 30 31 33 34 35 36 37 38 38 39 38 37 36 34 33 34 33 32 31 30 29 27 25 24 22 21 21 21 21 21 22 23 24 24 25 26
9 9 4 2 3 2 3 6 7 4 2 3 2 2 5 10 13 13 16 19 16 13 13 15 18 19 17 16 17 17 20 24 26 30 37 40 40 38 35 35 37 36 33 31 30 29 28 26 26 26 26 28 30 32 34 34 35 36 36 36 36 34 33 32 32 34 34 33 32 31 30 29 28 27 25 23 22 21 21 22 23 24 24 24 25 25
8 8 6 4 4 3 4 6 4 3 4 5 7 5 7 11 13 13 13 15 14 13 14 16 19 21 17 16 21 24 21 15 12 26 44 46 39 36 34 32 31 27 23 22 21 22 23 24 24 25 26 28 29 31 32 33 34 34 33 32 31 31 32 32 33 33 34 34 33 32 31 30 28 27 25 23 23 22 22 22 22 23 23 23 24 24
8 8 9 9 4 3 4 4 2 1 7 12 12 8 8 9 9 10 7 11 12 16 19 19 20 21 16 16 23 20 10 4 5 19 34 31 24 24 22 19 18 17 16 19 21 23 25 26 26 27 28 28 29 30 32 33 33 31 29 28 27 29 30 31 31 31 32 32 30 29 27 26 25 24 23 23 23 22 21 21 20 20 20 20 20 20
6 2 5 8 3 3 5 5 5 6 11 12 8 6 10 15 14 11 5 11 11 13 20 20 19 19 17 18 18 9 5 4 9 16 21 17 16 18 16 14 17 19 20 23 24 25 27 27 27 28 28 28 28 29 31 32 30 27 26 25 26 27 28 28 27 26 27 27 26 25 23 23 22 22 22 22 22 22 21 20 19 18 18 17 17 16
8 2 2 6 6 6 7 6 4 5 8 7 5 6 13 20 18 12 4 11 6 12 22 23 19 19 22 20 12 7 6 10 13 21 25 20 18 19 17 19 22 22 23 24 24 24 25 25 26 26 27 27 27 27 28 27 25 23 23 24 24 24 24 24 22 22 21 21 21 21 20 19 19 19 20 21 21 20 20 20 19 17 16 16 15 14
6 4 3 6 8 9 10 7 4 4 7 6 4 8 18 20 13 7 8 8 5 10 18 23 22 24 26 19 12 9 16 24 29 34 31 23 20 21 20 22 23 22 23 23 22 22 22 23 24 25 26 26 25 24 24 22 20 19 20 21 21 20 20 19 18 17 16 16 15 15 15 15 15 15 15 15 16 16 16 16 16 16 15 15 14 13
4 4 3 5 7 7 7 7 3 5 8 9 7 13 22 16 5 8 6 5 8 8 11 17 21 23 23 20 18 20 26 32 35 35 29 24 25 25 22 22 21 20 20 20 20 20 20 21 24 24 25 24 23 21 20 18 17 16 16 16 16 15 15 14 14 14 13 12 12 11 11 11 11 10 9 9 9 10 10 11 11 11 11 11 11 11
7 6 5 5 5 3 2 6 4 7 8 19 16 9 11 8 6 8 7 6 11 11 10 15 17 14 14 17 19 22 24 25 26 25 23 22 23 22 21 20 19 19 19 18 17 18 18 20 23 23 22 21 20 18 17 15 15 14 13 13 13 12 12 11 11 12 12 11 10 8 8 7 6 5 5 4 3 4 4 4 4 4 4 4 5 6
5 7 6 5 5 5 5 9 7 4 9 26 21 7 12 15 10 14 14 8 11 13 13 14 12 8 9 12 13 15 17 18 18 19 20 20 21 21 21 19 18 17 17 16 16 16 17 19 21 20 20 19 17 17 15 14 15 15 14 14 14 14 13 11 9 9 9 9 7 6 4 3 2 2 3 4 4 3 4 4 4 5 5 5 5 5
6 7 6 5 5 6 5 5 3 1 10 29 26 18 27 30 18 15 17 12 12 16 15 13 10 7 7 9 9 11 13 14 16 19 20 21 22 22 21 20 18 16 16 16 16 16 16 18 18 18 18 18 17 18 17 16 17 16 15 15 15 14 14 11 9 7 6 6 5 5 5 6 7 7 8 9 9 9 10 10 9 9 9 9 9 10
3 2 3 3 2 3 5 6 4 2 6 24 26 20 28 34 23 15 15 12 11 14 12 11 9 6 6 9 11 12 15 17 18 19 20 21 23 23 22 21 18 16 15 15 15 15 16 16 16 16 16 16 16 17 17 17 17 16 15 14 12 12 11 10 8 7 6 6 5 6 6 7 7 6 6 6 6 7 8 9 8 9 9 9 10 10
2 3 3 2 2 3 7 10 9 6 7 18 22 15 17 27 28 24 20 16 14 13 10 8 7 8 10 12 13 15 17 17 18 18 19 21 23 23 23 21 18 16 16 14 14 15 15 15 15 15 15 15 15 15 15 15 15 14 13 12 10 9 7 6 6 6 6 6 5 5 5 5 5 4 4 4 4 5 4 4 5 4 4 6 7 7
5 8 6 4 5 7 8 7 7 11 18 25 28 23 18 20 25 26 24 21 18 14 12 11 12 14 15 15 15 16 16 16 17 19 20 21 22 23 23 22 19 17 15 14 14 14 14 14 14 14 14 13 13 14 13 13 12 11 10 10 9 7 5 4 4 4 4 4 4 4 4 4 5 5 5 5 5 5 5 5 6 6 6 6 7 8
7 8 7 6 6 7 10 7 2 6 14 22 26 26 22 19 18 20 21 18 14 13 14 16 17 16 15 13 12 14 15 15 17 19 20 21 22 22 22 20 18 16 16 15 15 13 13 13 14 14 14 13 13 13 12 11 10 9 9 8 8 7 5 4 3 2 1 1 1 1 1 2 2 3 4 5 5 5 5 6 7 8 8 8 9 9
8 8 7 6 7 10 12 8 9 6 4 10 19 27 29 26 21 19 19 17 17 18 18 15 12 10 9 9 10 13 16 17 18 20 21 22 21 21 21 19 18 17 16 15 15 14 14 14 14 14 14 14 13 13 12 11 11 10 9 8 8 7 7 6 5 5 6 6 7 8 8 7 6 6 6 6 7 6 6 7 7 7 7 8 9 10
10 11 9 8 10 13 9 10 16 12 5 7 18 29 35 35 31 28 26 25 23 19 13 9 7 7 9 11 12 15 17 18 18 20 22 22 22 21 20 19 18 17 17 17 16 16 15 15 15 15 15 15 15 15 14 12 12 11 10 9 8 8 9 9 9 9 10 11 13 14 14 13 12 12 12 12 11 9 6 6 6 6 6 6 7 8
Wind_Direction
182 187 194 206 211 209 208 206 218 232 299 273 244 247 227 224 243 203 217 260 166 193 231 221 237 240 229 227 238 247 250 244 240 239 240 243 245 245 246 248 249 249 254 264 265 263 263 257 253 255 258 262 265 263 261 259 258 257 257 258 260 262 262 259 257 256 254 253 253 253 253 253 254 254 255 255 254 254 254 254 253 253 253 252 252 251
180 203 209 209 213 210 212 210 216 228 248 263 305 328 245 224 243 209 196 246 183 194 243 224 251 255 238 230 238 246 253 248 236 239 244 245 247 248 248 249 249 251 259 265 264 260 257 251 249 252 256 261 265 264 261 256 255 257 257 257 259 261 262 261 260 259 256 255 254 255 256 258 259 259 259 260 260 260 259 259 258 258 257 257 256 254
191 216 211 208 210 206 211 206 204 218 234 249 251 274 265 216 252 259 202 243 169 196 251 223 252 262 244 226 233 238 250 255 246 242 247 249 252 253 254 255 255 258 261 263 261 256 250 246 249 253 256 260 262 266 265 257 253 254 253 251 253 256 258 259 260 260 259 259 258 259 260 261 262 263 263 264 264 264 263 262 262 262 262 261 261 259
201 215 211 204 194 196 211 190 182 210 226 234 227 237 248 192 160 274 261 223 194 222 246 223 252 266 253 233 231 229 239 254 257 250 250 251 252 255 256 258 259 260 261 260 258 253 248 248 252 254 257 260 262 266 265 259 254 252 250 250 251 254 256 258 260 261 262 264 263 263 263 263 263 263 264 264 264 263 262 262 261 261 261 262 262 262
216 212 201 192 185 193 198 171 175 203 220 225 220 224 239 224 189 260 276 211 248 267 267 321 289 273 247 240 245 232 233 249 257 255 253 250 249 252 254 255 256 257 259 259 257 253 251 252 254 257 260 262 264 264 262 260 257 255 255 256 255 256 258 260 262 264 265 265 264 264 263 261 261 261 262 262 263 262 262 262 263 263 263 263 264 264
227 206 175 183 194 189 184 186 194 199 214 229 221 219 229 227 219 231 130 144 281 276 245 156 269 274 255 236 235 223 215 235 248 252 251 248 247 247 248 250 251 253 256 257 257 255 254 255 255 257 260 261 263 261 261 262 261 260 262 262 260 260 260 261 263 266 267 267 266 265 263 262 263 264 265 266 267 267 267 268 268 267 266 266 266 266
225 204 172 185 192 183 186 202 203 194 206 233 211 206 218 221 229 230 179 169 225 256 285 141 222 271 277 249 232 204 205 224 231 241 248 247 245 244 245 249 250 251 253 255 257 257 257 258 258 258 258 259 261 261 261 262 263 264 265 265 265 264 264 264 265 267 268 268 268 267 266 266 267 268 270 273 274 273 272 271 270 269 268 268 268 268
193 202 196 187 185 187 195 204 201 186 199 234 183 166 197 210 222 224 197 206 234 260 315 160 205 261 272 260 232 179 206 228 225 232 245 246 244 244 245 248 251 252 253 254 255 257 258 260 261 261 261 261 263 263 262 261 263 265 267 267 269 270 270 269 269 270 269 269 269 269 269 269 268 269 272 274 275 273 272 271 270 270 270 270 270 270
180 198 203 191 187 194 199 203 192 176 202 237 169 149 186 205 213 214 202 224 244 249 248 212 190 241 263 261 233 175 218 232 227 227 239 246 243 244 246 249 253 255 257 257 257 259 261 262 264 265 266 265 265 264 262 261 263 267 268 269 270 272 273 273 274 274 272 272 271 271 270 269 269 270 271 273 272 271 271 270 270 271 271 271 271 272
203 203 201 190 191 197 196 202 182 177 206 214 155 146 142 170 187 195 204 219 225 234 235 211 191 223 261 258 230 197 235 235 233 228 234 245 244 243 246 249 253 258 261 262 261 262 264 265 267 268 268 267 266 264 263 263 264 267 268 269 270 272 274 276 276 276 275 275 274 271 270 269 270 270 271 271 270 270 270 270 270 271 272 272 273 274
303 197 189 184 205 202 180 191 187 188 191 133 129 153 32 55 135 170 200 208 218 234 234 216 199 204 252 262 234 216 244 242 235 233 232 240 244 244 246 249 253 257 260 263 264 265 266 268 270 270 269 269 269 267 266 267 268 269 271 272 273 275 278 278 277 276 276 276 276 273 272 271 270 270 270 270 270 270 270 270 271 272 273 273 274 274
264 206 179 185 205 190 152 171 208 180 165 129 131 165 185 250 169 29 152 200 224 229 228 220 209 204 231 258 242 196 235 242 225 231 235 228 234 240 244 248 251 254 257 261 264 266 268 270 271 271 270 270 270 269 269 270 272 274 276 278 278 279 280 280 280 281 281 280 279 276 274 273 273 271 270 269 271 271 271 272 273 273 272 272 272 273
229 225 234 308 209 176 165 185 163 74 152 174 159 162 192 203 195 213 200 214 237 238 234 212 204 211 231 254 260 234 228 233 221 222 223 223 230 236 241 247 250 252 255 257 261 265 268 270 272 272 272 271 271 271 272 274 276 278 280 281 282 282 283 284 284 285 284 282 281 279 277 276 276 274 271 270 271 272 272 272 272 272 271 271 272 272
219 240 224 281 286 182 177 184 188 159 171 191 181 176 196 193 205 219 206 223 236 241 250 194 185 215 231 245 252 249 240 237 242 238 226 226 235 240 244 249 251 253 254 256 260 263 266 268 270 271 273 274 274 275 276 277 279 281 283 284 284 284 284 285 284 283 282 282 281 281 280 278 277 275 273 272 272 273 273 272 272 272 271 271 272 274
198 230 201 195 210 184 187 196 192 168 172 195 187 183 201 197 211 218 206 225 237 250 259 172 173 206 198 206 236 249 250 236 239 243 236 232 239 245 250 252 252 254 255 256 259 261 263 266 268 270 273 276 278 278 278 279 282 285 286 287 286 285 285 284 282 281 280 280 281 280 279 278 276 274 274 274 274 274 273 273 273 272 272 272 273 275
203 239 208 198 196 172 187 201 178 147 172 203 179 191 211 208 215 236 222 182 193 298 280 183 215 221 214 258 274 282 291 241 238 242 238 238 242 245 250 253 254 255 256 256 257 259 263 266 268 271 274 276 277 279 281 285 289 292 292 291 289 287 286 284 281 279 278 279 280 279 278 277 275 274 273 272 272 273 274 274 274 273 273 272 273 275
200 235 201 188 202 192 191 192 170 162 174 182 192 204 214 198 204 241 264 181 192 264 238 186 242 276 267 281 277 257 252 249 253 250 239 241 244 242 246 251 254 255 256 257 258 260 264 268 271 272 273 274 277 281 286 291 297 300 301 302 298 292 288 283 280 279 278 278 279 279 278 277 275 273 272 271 272 273 275 275 274 274 273 272 273 274
184 222 228 160 203 215 191 172 176 189 174 157 200 198 152 69 136 187 255 245 242 256 245 203 222 230 228 253 268 255 242 231 240 247 241 245 246 242 243 248 253 256 258 260 262 263 265 267 269 272 273 276 279 284 290 295 302 307 311 315 314 307 298 289 281 277 276 276 277 277 277 277 276 275 273 272 272 273 274 274 274 274 274 274 274 275
170 215 286 183 187 191 151 149 193 221 194 154 200 181 155 173 187 185 217 227 227 238 243 236 235 226 214 227 267 266 255 238 221 227 245 248 246 244 246 251 255 257 261 263 263 262 263 265 269 274 277 280 283 287 292 299 307 311 314 317 318 315 311 301 286 276 274 274 274 274 275 277 278 277 276 274 273 273 272 272 273 274 275 276 275 275
169 193 273 277 157 143 142 166 201 207 204 293 193 170 179 227 201 195 204 222 228 229 237 242 240 231 213 209 226 248 257 253 207 193 234 244 244 245 247 253 257 258 262 264 265 268 272 273 274 277 281 285 285 287 295 305 312 313 314 316 316 315 315 310 297 283 275 274 273 273 274 276 278 279 279 277 275 273 272 272 272 273 275 276 275 275
129 188 232 322 359 179 171 192 204 200 196 192 179 175 192 208 186 185 210 225 231 228 237 246 241 233 212 194 205 232 255 262 225 193 213 229 238 244 249 253 256 258 260 265 273 283 285 282 281 283 284 284 288 296 305 310 312 313 313 314 314 314 314 313 305 292 281 276 273 272 273 275 278 280 280 279 275 273 272 271 270 271 273 274 274 273
128 189 206 171 178 200 191 201 218 213 199 190 192 188 191 194 185 213 225 218 219 221 227 244 249 247 243 213 204 221 245 266 236 204 217 229 236 245 252 254 256 260 264 271 282 288 288 289 290 289 289 293 301 307 310 312 312 313 315 315 314 313 313 313 309 297 285 279 275 272 274 276 277 278 279 277 274 271 270 269 268 271 272 272 272 272
128 138 168 170 182 202 233 248 266 217 184 189 208 200 202 206 190 207 222 207 201 216 220 245 259 256 244 221 218 231 240 267 249 212 226 241 243 249 256 258 260 264 269 279 289 295 299 303 301 302 303 304 307 309 312 314 314 315 318 317 316 313 311 312 310 300 289 281 276 273 273 273 273 274 275 274 272 269 268 268 269 270 270 270 271 271
132 118 154 173 156 285 296 309 344 18 132 176 214 202 205 212 204 213 221 206 211 210 199 236 253 245 246 229 223 250 258 265 251 232 235 247 252 257 262 266 270 274 282 293 303 310 312 311 309 308 308 307 307 310 313 314 314 315 317 319 322 318 314 314 311 302 291 284 278 273 270 268 268 271 272 272 271 269 269 269 269 269 268 269 269 269
189 187 157 148 114 89 294 318 322 278 192 193 211 206 206 209 210 219 229 227 241 206 191 226 245 233 255 261 240 264 280 269 246 236 237 247 258 267 272 281 288 291 298 303 307 310 310 310 309 307 307 307 307 309 312 313 314 313 312 316 323 324 320 319 315 305 294 287 281 275 270 267 268 270 271 272 272 272 271 271 270 268 268 268 268 268
191 195 171 177 183 185 197 210 212 206 196 196 208 211 212 209 206 211 219 222 222 196 195 220 238 245 275 284 278 277 277 273 258 238 229 237 257 280 291 296 298 298 300 302 305 307 306 305 303 302 302 302 303 306 308 308 309 308 307 309 314 319 321 321 318 310 299 292 287 282 277 274 272 271 273 273 273 273 272 270 269 268 268 268 269 269
184 214 201 201 207 206 206 212 201 156 161 187 196 204 210 208 204 203 209 222 218 212 222 222 222 245 262 267 267 265 264 274 275 263 248 241 256 278 286 289 291 294 296 298 299 300 299 298 297 297 297 297 299 303 303 301 302 302 303 305 308 311 314 317 319 315 305 297 293 290 287 282 278 273 271 271 270 269 267 265 264 265 265 267 268 269
181 217 208 211 224 228 225 215 174 145 176 197 196 204 211 205 200 201 212 221 213 217 237 230 220 236 247 249 252 255 258 265 270 272 275 274 271 272 275 279 283 286 288 289 290 291 291 292 293 294 293 292 295 298 296 296 296 297 299 302 303 306 307 309 314 316 311 302 295 291 288 282 278 275 271 269 267 264 263 262 262 263 264 266 267 269
194 215 208 207 224 234 231 202 167 168 184 194 194 205 209 200 195 202 215 222 217 217 235 234 226 231 239 246 252 252 251 254 261 269 276 276 273 272 271 272 274 276 279 281 283 285 286 288 289 289 288 288 290 292 293 293 293 294 297 298 299 303 303 302 307 313 312 305 296 289 285 279 276 275 273 271 269 267 265 265 265 266 267 268 270 270
177 213 209 201 220 234 226 193 181 186 182 190 202 206 203 195 196 204 214 222 223 226 232 237 238 238 238 248 255 254 252 255 261 265 267 268 269 270 267 263 264 268 272 276 280 283 284 285 286 286 285 286 288 290 292 291 292 294 297 298 299 301 299 298 303 307 308 304 295 286 283 280 278 278 278 279 278 276 275 273 272 272 272 271 272 273
183 216 207 191 217 237 221 194 191 189 177 190 207 204 196 192 195 206 215 219 223 229 233 238 249 254 247 244 252 257 260 259 261 262 263 265 267 270 270 267 267 268 270 273 277 280 282 283 284 286 287 289 290 291 292 292 293 295 297 298 300 299 295 296 300 302 302 299 293 286 283 282 281 282 283 284 285 285 285 284 283 281 279 277 275 275
189 213 190 168 212 235 218 198 191 171 144 205 216 190 186 190 197 206 211 211 212 218 227 235 244 250 247 241 247 259 259 252 258 262 263 266 270 274 276 274 272 270 269 271 274 276 280 282 285 288 290 292 293 293 294 295 296 297 297 298 299 297 295 297 298 297 295 293 288 284 283 283 283 283 284 284 285 286 287 288 288 288 286 283 279 276
183 198 179 165 207 236 220 187 174 151 152 235 226 206 196 197 203 207 211 216 213 206 212 224 227 235 244 241 237 251 252 244 251 257 260 268 274 274 270 268 271 273 273 273 273 275 279 283 285 289 291 292 294 294 296 297 296 296 296 296 296 295 296 296 296 293 288 284 281 278 278 279 278 278 280 281 283 284 285 287 287 288 288 286 284 280
185 198 201 183 206 236 199 149 150 174 214 226 216 207 207 204 196 197 213 221 216 209 216 230 234 238 245 239 229 239 248 247 250 257 261 267 270 268 267 266 270 275 275 276 278 279 282 284 287 291 293 294 296 296 296 295 293 293 293 293 293 293 294 293 291 288 283 277 275 273 271 270 269 271 274 277 279 281 282 284 285 285 286 285 284 282
189 195 197 185 197 218 160 144 168 208 219 224 211 202 210 209 197 203 224 226 216 210 219 233 241 239 237 239 236 236 246 253 257 262 264 265 264 264 266 268 270 274 277 283 287 288 288 289 291 293 295 297 298 297 296 294 293 292 292 291 292 292 292 290 287 284 277 271 270 269 267 266 266 267 269 271 273 276 277 279 280 280 281 279 278 277
192 192 190 187 172 153 149 177 202 227 246 247 253 144 186 201 202 211 231 235 220 203 211 224 235 238 237 243 246 242 248 259 266 267 265 264 264 264 264 268 272 276 283 289 292 293 294 294 293 294 295 297 298 297 297 296 295 293 292 292 293 291 289 286 283 279 273 268 267 267 266 266 266 266 266 267 269 272 274 276 276 276 276 274 272 270
199 194 192 205 199 176 177 198 222 336 338 258 236 206 183 194 200 200 226 245 226 200 209 222 232 241 241 244 250 249 253 265 278 271 266 264 264 265 266 271 277 282 288 293 295 296 297 296 294 293 293 294 294 294 295 296 296 295 294 293 291 288 285 283 279 275 271 268 267 267 266 265 264 265 265 267 269 271 272 273 273 274 274 273 271 269
206 201 194 200 205 146 157 199 212 228 252 243 230 206 177 176 177 165 195 253 237 204 206 217 230 239 239 243 247 245 243 257 268 264 264 264 265 266 268 275 283 288 290 293 297 298 299 298 295 293 292 291 290 290 291 294 296 297 295 291 287 284 281 278 276 272 270 268 266 265 264 264 264 265 266 268 269 270 270 270 270 271 271 270 271 271
212 238 208 204 192 132 172 212 199 204 241 243 219 180 162 162 152 132 167 251 244 199 198 210 225 232 231 234 234 211 159 215 248 253 253 256 262 266 273 285 289 292 294 295 299 301 301 301 299 297 296 292 289 289 290 292 295 295 293 287 281 277 273 272 271 269 268 268 267 266 266 266 266 266 266 267 267 268 268 268 266 267 266 266 267 268
205 195 194 201 196 177 189 214 215 229 248 232 192 178 166 155 139 120 188 247 229 176 190 201 212 224 228 226 211 158 167 213 238 254 256 260 268 273 283 292 292 296 300 299 301 302 301 302 302 300 299 294 291 290 290 292 294 291 286 280 274 270 268 267 267 266 265 267 268 269 269 269 269 269 267 266 266 265 266 266 264 264 263 262 262 261
204 190 183 201 204 193 194 209 239 260 238 214 197 163 142 130 127 158 204 222 185 176 192 195 204 221 226 217 187 182 217 228 241 255 261 267 276 279 287 292 293 298 301 301 302 301 299 299 299 297 297 295 293 290 289 290 289 282 275 271 268 267 265 264 265 265 266 268 269 270 273 275 276 275 272 269 268 266 267 267 266 266 265 263 261 259
188 186 182 197 200 194 197 203 238 275 221 175 146 149 145 137 172 207 187 146 152 172 185 187 203 222 226 218 208 215 230 240 247 257 264 270 277 281 287 291 293 297 299 301 302 300 297 296 294 293 293 292 291 290 287 283 277 269 264 263 262 261 262 264 267 269 269 271 271 272 274 276 277 278 275 273 272 269 267 266 266 266 265 263 260 257
183 180 185 198 187 161 181 180 195 270 204 149 130 141 171 185 198 165 136 132 159 160 161 180 202 221 222 224 229 232 242 251 255 262 270 274 280 285 287 289 294 297 299 300 299 297 295 291 288 288 287 286 284 283 279 272 264 258 256 258 258 258 261 264 266 267 265 264 266 267 268 267 265 265 267 270 274 267 252 246 244 240 237 235 235 234
185 184 189 205 184 167 194 193 195 259 166 150 146 169 206 213 204 162 153 159 169 167 167 178 196 214 217 229 240 241 246 254 261 271 281 285 289 291 291 293 297 297 299 300 296 292 287 283 282 281 279 277 273 269 265 261 260 259 258 260 261 262 264 260 255 253 249 245 242 233 222 204 170 155 133 114 104 109 120 121 121 126 125 122 127 132
207 193 173 186 199 193 212 216 211 354 161 166 172 189 197 201 198 167 163 169 174 179 178 173 184 207 226 240 250 249 253 264 275 286 294 297 297 296 296 296 296 296 298 297 292 287 282 278 277 275 272 271 267 263 261 258 259 259 257 255 253 254 253 246 239 235 228 218 201 176 156 136 124 117 110 106 103 101 100 99 100 104 104 103 107 109
231 199 124 132 216 248 270 260 249 322 190 184 185 191 195 197 193 180 184 190 184 185 182 175 187 220 248 253 256 262 273 282 289 295 299 300 300 300 298 296 296 295 293 290 286 283 277 272 270 267 265 265 264 263 262 259 257 255 251 246 240 236 233 226 220 215 206 195 174 151 140 133 124 113 102 98 93 87 86 84 83 85 86 87 91 94
245 201 158 124 142 195 242 246 225 215 217 204 198 193 194 199 204 210 216 218 214 212 209 207 229 266 273 266 266 272 282 290 293 295 298 298 299 299 297 295 293 289 286 282 278 274 269 264 262 259 256 255 255 257 257 255 255 252 246 239 228 215 208 202 202 203 200 191 170 147 138 130 115 99 84 73 62 54 49 44 43 44 48 53 53 53
190 178 172 172 174 186 220 251 230 206 209 209 208 206 200 199 206 214 222 229 229 229 234 249 269 280 278 276 278 280 284 291 293 294 297 297 296 295 292 289 286 283 278 272 266 262 259 255 251 248 247 244 243 245 246 245 245 241 233 227 217 204 192 180 179 184 186 179 164 147 132 112 96 85 71 61 56 50 41 26 11 354 347 355 2 3
135 158 179 181 181 213 236 242 195 201 216 216 215 215 208 197 201 212 219 224 229 238 254 267 275 277 276 280 286 285 288 295 298 297 296 293 292 291 287 282 278 272 267 262 257 252 247 243 240 238 237 234 231 231 231 228 225 217 207 202 198 195 193 190 186 197 224 238 267 296 9 49 51 47 40 32 25 19 14 10 9 4 354 349 348 349
143 177 190 167 178 222 239 209 164 169 226 219 218 221 216 210 215 225 227 232 245 256 262 265 264 263 267 279 289 289 290 296 299 296 291 290 290 288 283 276 268 260 254 249 244 239 234 231 230 229 227 223 218 215 211 207 204 199 196 197 201 206 215 225 237 255 273 288 297 300 302 303 305 310 318 325 333 339 340 337 341 348 349 347 345 346
190 190 174 173 205 222 215 165 164 180 194 188 205 216 218 219 227 238 243 248 252 252 249 246 251 269 284 292 294 291 290 294 295 291 288 290 289 285 279 271 261 252 245 240 235 230 225 221 220 220 218 215 211 205 202 201 203 205 210 218 227 234 241 247 254 264 274 283 290 294 297 296 294 295 297 302 307 311 311 305 300 300 306 315 324 333